Airfield :
LOGIN :

Register | Disclaimer

   EN    FR    IT 

 










Legend :    VFR   Marginal VFR   IFR   Intensive IFR   Very Intensive IFR
Visi :
Ceiling :
>= 8 km
>= 3000ft
5 to 8 km
1000 to 3000 ft
1500m to 5 km
500 to 1000 ft
800 to 1500m
200 to 500 ft
< 800m
< 200 ft
Symbols :   Thunderstorms  Fog  Heavy snow  Heavy precipitations  Wind > 20 kt
SIGMETs :     Misc.  Thunderstorms  Icing  Turbulence  Mountain Waves  Volcanic Ashes







- Airport Elevation : 138 ft
- IATA code : RLG


ETNL - Rostock Laage

CURRENT METAR :
  • 211920Z 28012G23KT 9999 VCSH SCT029TCU SCT032 12/08 Q1013 BLU+

EXPIRED METARs :
  • 211820Z 27014KT 9999 SCT030 BKN036 12/08 Q1013 BLU
  • 211720Z 33012KT 9999 FEW013 SCT024 BKN028 11/06 Q1013 BLU

TAF TAF ETNL
Valid from the 21 at 17:00 until the 22 at 05:00 UTC


211633Z 2117/2205 27015G25KT 9999 NSW SCT015 BKN040
TEMPO 2116/2119 29018G30KT 4000 SHRA BKN012 BKN030CB
PROB30 2116/2119 VRB20G38KT 2000 TSRA BKN007 BKN010CB
BECMG 2121/2123 26010G20KT 9999 NSW FEW025 BKN100
TEMPO 2202/2205 25012G22KT 4000 SHRA BKN012 BKN025CB
PROB30 2202/2205 VRB15G25KT 2000 TSRA BKN010 BKN020CB BY ETGL
No reported NOTAMs for that airfield.



MET'MAP, your aeronautical weather chart ! - Copyright ORBIFLY December 2007 - Disclaimer

ORBIFLY MET'MAP TEAM :

Programming & Development : Alexandra Zaïnal
Concept & Development : Baudouin d'Aumeries
Co-Development & Prog : Marc-Olivier Méhu
Technical & hardware support : Manuel Goepfert

Contact : metmap@orbifly.com




SOURCES & CREDITS :

   NOAA